Location: Aix-en-Ergny
(50.5839°N, 1.9996°E)
Time: 07:03:35
(UTC+00:00)

Meteor 2-10 - Pass Details

Date: 23 October 2019
Orbit: 738 x 869 km, 81.2° (Epoch: 13 November)

Event Time Altitude Azimuth Distance (km) Brightness Sun altitude
Rises 04:56:58 0° 342° (NNW) 3,238 7.1 -15.0°
Reaches altitude 10° 04:59:23 10° 336° (NNW) 2,325 6.3 -14.6°
Maximum altitude 05:04:18 44° 266° (W) 1,090 4.3 -13.8°
Drops below altitude 10° 05:09:23 10° 196° (SSW) 2,388 6.4 -13.0°
Sets 05:11:53 0° 190° (S) 3,337 7.2 -12.6°
